Location: Lombard
(41.8800°N, 88.0080°W)
Time: 23:48:34
(UTC-05:00)

A-11 Canister half - Pass Details

Date: 05 February 2023
Orbit: 1512 x 1687 km, 47.2° (Epoch: 20 March)

Event Time Altitude Azimuth Distance (km) Brightness Sun altitude
Rises 15:42:59 0° 295° (WNW) 4,745 12.0 13.7°
Reaches altitude 10° 15:46:05 10° 295° (WNW) 3,739 11.5 13.2°
Maximum altitude 15:55:30 80° 210° (SSW) 1,543 9.4 11.8°
Drops below altitude 10° 16:04:42 10° 125° (SE) 3,663 10.8 10.4°
Sets 16:07:43 0° 124° (SE) 4,645 11.3 9.9°
